Regional Weather Roundup
Issued by NWS Upton, NY

Current Version | Previous Version | Text Only | Print | Product List | Glossary Off
Versions: 1 2 3 4 5 6 7 8 9 10 11 12 13 14 15 16 17 18 19 20 21 22 23 24 25 26 27 28 29 30 31 32 33 34 35 36 37 38 39 40 41 42 43 44 45 46 47 48 49 50
000 ASUS41 KOKX 030405 RWROKX REGIONAL WEATHER ROUNDUP NATIONAL WEATHER SERVICE NEW YORK NY 1100 PM EST MON MAR 02 2015 NOTE: "FAIR" INDICATES FEW OR NO CLOUDS BELOW 12,000 FEET WITH NO SIGNIFICANT WEATHER AND/OR OBSTRUCTIONS TO VISIBILITY. NYZ071-072-176-178-NJZ106-104-030500- NEW YORK CITY METRO AREA CITY SKY/WX TMP DP RH WIND PRES REMARKS CENTRAL PARK FAIR 29 9 43 NW9G21 30.37R WCI 20 LAGUARDIA APRT FAIR 29 11 47 NW15G22 30.36R WCI 18 KENNEDY INTL FAIR 29 9 43 NW24G31 30.37R WCI 15 NEWARK/LIBERTY FAIR 28 11 48 NW13G18 30.37R WCI 17 BRNX BOT. GARD N/A N/A N/A N/A N6 30.38R TETERBORO FAIR 27 9 46 NW8 30.36R WCI 19 $$ NYZ177-179-078>081-030500- LONG ISLAND NEW YORK CITY SKY/WX TMP DP RH WIND PRES REMARKS FARMINGDALE FAIR 28 9 44 NW10 30.35R WCI 19 ISLIP FAIR 26 10 50 NW8 30.32R WCI 18 SHIRLEY FAIR 27 10 49 NW7 30.34R WCI 19 WESTHAMPTON FAIR 28 10 46 NW16G22 30.33R WCI 16 MONTAUK POINT NOT AVBL $$ NYZ052-065-067-030500- HUDSON VALLEY CITY SKY/WX TMP DP RH WIND PRES REMARKS WHITE PLAINS FAIR 24 9 52 NW8 30.31R WCI 15 NEWBURGH CLEAR 23 12 63 NW18 30.32R WCI 9 MONTGOMERY FAIR 25 9 50 NW10G25 30.32R WCI 15 POUGHKEEPSIE FAIR 25 8 48 W8 30.33R WCI 16 ALBANY FAIR 22 7 52 NW10 30.34R WCI 11 $$ NJZ001-105-106-008-010-013-015-019>022-104-030500- NEW JERSEY CITY SKY/WX TMP DP RH WIND PRES REMARKS NEWARK/LIBERTY FAIR 28 11 48 NW13G18 30.37R WCI 17 TETERBORO FAIR 27 9 46 NW8 30.36R WCI 19 CALDWELL FAIR 26 8 46 VRB3 30.37R MORRISTOWN FAIR 30 9 40 NW12 30.37R WCI 21 SOMERVILLE FAIR 29 7 39 N6 30.36R WCI 23 SUSSEX MOCLDY 24 8 50 CALM 30.35R ANDOVER N/A 24 8 50 NW10G16 30.34R WCI 14 TRENTON FAIR 29 7 39 NW6 30.36R WCI 23 MILLVILLE FAIR 29 16 58 W7 30.38R WCI 22 ATLANTIC CITY FAIR 29 16 58 W9 30.37R WCI 20 WRIGHTSTOWN FAIR 28 13 54 N6 30.34R WCI 21 TOMS RIVER FAIR 28 10 47 NW6 30.37R WCI 22 BELMAR FAIR 28 9 43 NW3 30.35R $$ PAZ047>061-062-071-030500- EASTERN PENNSYLVANIA CITY SKY/WX TMP DP RH WIND PRES REMARKS PHILADELPHIA FAIR 31 15 52 W10 30.40R WCI 22 ALLENTOWN FAIR 27 6 41 N10 30.37R WCI 17 SCRANTON FAIR 22 7 52 NW15G28 30.34R WCI 9 $$ CTZ002-004>006-009-010-012-RIZ004-006-007-MAZ004-011-015-030500- SOUTHERN NEW ENGLAND IN CT CITY SKY/WX TMP DP RH WIND PRES REMARKS BRADLEY INTL FAIR 26 7 44 NW10 30.29R WCI 16 HARTFORD FAIR 26 8 46 NW8 30.32R WCI 18 DANBURY FAIR 24 6 46 CALM 30.32R WTRBRY/OXFORD FAIR 25 3 39 NW5 30.28R WCI 19 BRIDGEPORT FAIR 26 11 52 NW8 30.33R WCI 18 MERIDEN FAIR 27 8 44 NW8G18 30.31R WCI 19 NEW HAVEN FAIR 28 9 44 NW10 30.31R WCI 19 CHESTER FAIR 28 10 47 NW13G24 30.27R WCI 18 GROTON FAIR 26 9 48 NW16 30.29R WCI 14 WILLIMANTIC FAIR 25 7 46 W10 30.27R WCI 15 IN RI CITY SKY/WX TMP DP RH WIND PRES REMARKS PROVIDENCE FAIR 25 9 50 W8 30.25R WCI 16 BLOCK ISLAND FAIR 28 9 43 NW12G20 30.26R WCI 18 WESTERLY FAIR 27 9 46 VRB5 30.28R WCI 22 IN MA CITY SKY/WX TMP DP RH WIND PRES REMARKS BOSTON MOCLDY 27 15 61 NW14 30.23R WCI 16 WORCESTER FAIR 20 7 57 W13 30.17R WCI 7 WESTFIELD FAIR 24 7 48 NW13 30.27R WCI 12 PROVINCETOWN FAIR 28 18 64 NW23G32 30.20R WCI 14 NANTUCKET FAIR 28 13 53 W15G24 30.21R WCI 16 $$ ANZ330-335-338-340-345-350-353-355-030500- COASTAL MARINE OBSERVATIONS STATION/POSITION TIME SKY/WX TEMP WIND PRES VSBY WAVE AIR SEA DIR/SP/G HT/PER (UTC) (F) (DEG/KT/KT) (MB) (MI) (FT/S) NY HARB ENTRANCE 0400 33 38 320/ 23/ 27 1027.7 3/ 4 4S FIRE IS 0300 32 N/A 3/ 9 20S FIRE ISLAND 0300 37 1026.5 4/ 5 23SW MTP 0400 N/A 4/ 5 HUDSON CANYON NOT AVBL EXECUTION ROCKS NOT AVBL WESTERN LI SOUND NOT AVBL CENTRAL LI SOUND NOT AVBL EASTERN LI SOUND NOT AVBL ROBBINS REEF 0300 29 330/ 20/ 25 1026.4 $$ >>>>>>>>>>>>>>>>>>>>>>>>>>>> KEY <<<<<<<<<<<<<<<<<<<<<<<<<<< > < > SKY/WX - SKY CONDITION/PRESENT WEATHER < > TMP - TEMPERATURE IN FAHRENHEIT < > DP - DEWPOINT IN FAHRENHEIT < > RH - RELATIVE HUMIDITY IN PERCENT < > WIND - DIRECTION AND SPEED IN MPH < > PRES - MEAN SEA LEVEL PRESSURE IN INCHES OF HG < > WCI - WIND CHILL INDEX < > VSB - VISIBILITY IN MILES < > HX - HEAT INDEX < > TC - TEMPERATURE IN CELSIUS < > VRB - VARIABLE WIND DIRECTION < > < >>>>>>>>>>>>>>>>>>>>>>>>>>>> KEY <<<<<<<<<<<<<<<<<<<<<<<<<<<

USA.gov is the U.S. government's official web portal to all federal, state and local government web resources and services.